GW3604 Weather Reports


time (UTC)temp
C
wind
direction
speed
KPH
gust
KPH
rain 1hr
cm
rain 24hr
cm
rain mn
cm
humidity
%
barometer
mb
20260507170003 17 315 4.8 12.9 0.00 0.61 0.05 30 1006.0
20260507165503 17 299 3.2 11.3 0.00 0.61 0.05 31 1006.2
20260507164503 17 302 3.2 9.7 0.00 0.61 0.05 33 1006.3
20260507164003 17 308 3.2 9.7 0.00 0.61 0.05 37 1006.3
20260507163503 17 315 4.8 11.3 0.00 0.61 0.05 33 1006.3
20260507163003 17 316 4.8 14.5 0.00 0.61 0.05 36 1006.3
20260507162003 17 301 3.2 9.7 0.00 0.61 0.05 39 1006.5
20260507161003 16 302 4.8 20.9 0.00 0.61 0.05 37 1006.8
20260507160503 16 303 4.8 11.3 0.00 0.61 0.05 41 1006.8
20260507160003 16 304 3.2 11.3 0.00 0.61 0.05 44 1006.7
20260507155503 16 301 1.6 9.7 0.00 0.61 0.05 46 1006.8
20260507155003 15 295 1.6 6.4 0.00 0.61 0.05 50 1006.7
20260507154503 15 291 3.2 9.7 0.00 0.61 0.05 48 1006.8
20260507154003 15 297 3.2 11.3 0.00 0.61 0.05 53 1006.9
20260507153504 15 291 3.2 11.3 0.00 0.61 0.05 53 1006.8
20260507153003 15 272 1.6 8.0 0.00 0.61 0.05 56 1006.8
20260507152503 15 288 1.6 6.4 0.00 0.61 0.05 54 1006.9
20260507152003 15 304 1.6 6.4 0.00 0.61 0.05 57 1007.0
20260507151003 15 299 1.6 14.5 0.00 0.61 0.05 54 1006.9
20260507150003 14 295 1.6 12.9 0.00 0.61 0.05 57 1007.1
20260507145504 14 295 1.6 12.9 0.00 0.61 0.05 55 1007.2
20260507145004 14 297 0.0 3.2 0.00 0.61 0.05 59 1007.2
20260507144503 14 297 0.0 3.2 0.00 0.61 0.05 57 1007.3
20260507143504 14 298 0.0 4.8 0.00 0.61 0.05 57 1007.3
20260507142503 14 0 0.0 0.0 0.00 0.61 0.05 60 1007.2
20260507141004 13 308 1.6 6.4 0.00 0.61 0.05 58 1007.1
20260507140503 13 300 1.6 8.0 0.00 0.61 0.05 59 1007.1
20260507140004 13 293 0.0 8.0 0.00 0.61 0.05 60 1007.2
20260507135503 13 313 0.0 8.0 0.00 0.61 0.05 61 1007.2
20260507135003 12 317 0.0 4.8 0.00 0.61 0.05 64 1007.2
20260507134503 12 0 0.0 0.0 0.00 0.61 0.05 62 1007.1
20260507134003 12 0 0.0 0.0 0.00 0.61 0.05 61 1007.0
20260507133503 12 325 0.0 6.4 0.00 0.61 0.05 61 1007.0
20260507133003 12 325 1.6 6.4 0.00 0.61 0.05 62 1007.3
20260507132503 12 326 1.6 8.0 0.00 0.61 0.05 64 1007.3
20260507132003 11 326 1.6 8.0 0.00 0.61 0.05 65 1007.4
20260507131503 11 0 0.0 0.0 0.00 0.61 0.05 66 1007.4
20260507131003 11 332 0.0 1.6 0.00 0.61 0.05 69 1007.4
20260507130503 11 336 0.0 6.4 0.00 0.61 0.05 69 1007.4
20260507125503 11 321 1.6 8.0 0.00 0.61 0.05 74 1007.4
20260507125003 10 321 1.6 8.0 0.00 0.61 0.05 75 1007.5
20260507124504 10 323 0.0 6.4 0.00 0.61 0.05 77 1007.6
20260507124003 10 0 0.0 0.0 0.00 0.61 0.05 80 1007.5
20260507123504 10 0 0.0 0.0 0.00 0.61 0.05 81 1007.6
20260507123003 10 325 0.0 4.8 0.00 0.61 0.05 83 1007.6
20260507122503 10 325 0.0 4.8 0.00 0.61 0.05 84 1007.8
20260507121004 9 0 0.0 0.0 0.00 0.61 0.05 85 1007.8
20260507120003 9 0 0.0 0.0 0.00 0.61 0.05 87 1007.8
20260507115503 9 0 0.0 0.0 0.00 0.61 0.05 87 1007.7
20260507115004 8 0 0.0 0.0 0.00 0.61 0.05 87 1007.7
20260507114503 8 0 0.0 0.0 0.00 0.61 0.05 88 1007.6
20260507114004 8 0 0.0 0.0 0.00 0.61 0.05 88 1007.7
20260507113503 8 0 0.0 0.0 0.00 0.61 0.05 89 1007.7
20260507113004 8 0 0.0 0.0 0.00 0.61 0.05 89 1007.4
20260507112503 8 0 0.0 0.0 0.00 0.61 0.05 89 1007.5
20260507111504 8 0 0.0 0.0 0.00 0.61 0.05 89 1007.4
20260507111003 8 0 0.0 0.0 0.00 0.61 0.05 89 1007.4
20260507110503 8 0 0.0 0.0 0.00 0.61 0.05 89 1007.4
20260507110003 8 0 0.0 0.0 0.00 0.61 0.05 89 1007.4
20260507104504 8 0 0.0 0.0 0.00 0.61 0.05 89 1007.3
20260507104004 8 0 0.0 0.0 0.00 0.61 0.05 89 1006.9
20260507103503 8 0 0.0 0.0 0.00 0.61 0.05 88 1007.0
20260507103004 8 0 0.0 0.0 0.00 0.61 0.05 88 1006.8
20260507102503 8 0 0.0 0.0 0.00 0.61 0.05 88 1007.0
20260507102004 8 0 0.0 0.0 0.00 0.61 0.05 88 1006.8
20260507101503 8 0 0.0 0.0 0.00 0.61 0.05 88 1006.8
20260507101003 8 0 0.0 0.0 0.00 0.61 0.05 88 1006.8
20260507100003 8 0 0.0 0.0 0.00 0.61 0.05 89 1006.8
20260507095004 8 0 0.0 0.0 0.00 0.61 0.05 89 1006.8
20260507094503 8 0 0.0 0.0 0.00 0.61 0.05 89 1007.3
20260507094004 9 0 0.0 0.0 0.00 0.61 0.05 89 1007.0
20260507093503 9 0 0.0 0.0 0.00 0.61 0.05 89 1007.1
20260507093003 9 0 0.0 0.0 0.03 0.61 0.05 89 1007.1
20260507092504 9 0 0.0 0.0 0.03 0.61 0.05 89 1007.2
20260507092003 9 0 0.0 0.0 0.03 0.61 0.05 89 1006.9
20260507091503 9 0 0.0 0.0 0.03 0.61 0.05 89 1007.1
20260507091003 9 0 0.0 0.0 0.03 0.61 0.05 89 1007.2
20260507090503 9 0 0.0 0.0 0.03 0.61 0.05 89 1007.3
20260507085503 10 0 0.0 0.0 0.03 0.61 0.05 89 1006.8
20260507085003 10 0 0.0 0.0 0.05 0.61 0.05 89 1006.9
20260507084503 10 0 0.0 0.0 0.05 0.61 0.05 89 1006.8
20260507084003 10 0 0.0 0.0 0.05 0.61 0.05 89 1007.3
20260507083004 10 0 0.0 0.0 0.03 0.58 0.03 89 1006.8
20260507082503 10 0 0.0 0.0 0.03 0.58 0.03 89 1006.7
20260507082003 10 0 0.0 0.0 0.03 0.58 0.03 89 1006.7
20260507081503 10 0 0.0 0.0 0.03 0.58 0.03 89 1006.8
20260507080503 10 0 0.0 0.0 0.03 0.58 0.03 89 1006.7
20260507080003 10 0 0.0 0.0 0.03 0.58 0.03 89 1006.3
20260507075503 10 0 0.0 0.0 0.03 0.58 0.03 89 1006.8
20260507075003 10 0 0.0 0.0 0.00 0.56 0.00 90 1006.8
20260507074504 10 0 0.0 0.0 0.00 0.56 0.00 90 1006.7
20260507074003 10 0 0.0 0.0 0.00 0.56 0.00 90 1006.9
20260507073503 10 0 0.0 0.0 0.00 0.56 0.00 90 1006.9
20260507073004 10 0 0.0 0.0 0.00 0.56 0.00 90 1006.7
20260507072504 10 0 0.0 0.0 0.00 0.56 0.00 90 1006.3
20260507072003 10 0 0.0 0.0 0.00 0.56 0.00 90 1006.3
20260507071504 10 0 0.0 0.0 0.00 0.56 0.00 90 1006.3
20260507071004 10 0 0.0 0.0 0.00 0.56 0.00 90 1006.1
20260507065003 10 0 0.0 0.0 0.00 0.56 0.00 90 1006.2
20260507064504 10 0 0.0 0.0 0.00 0.56 0.00 90 1005.8
20260507064003 11 0 0.0 0.0 0.00 0.56 0.00 90 1006.2
20260507063504 11 0 0.0 0.0 0.00 0.56 0.00 90 1006.3
20260507063003 11 0 0.0 0.0 0.00 0.56 0.00 90 1006.0
20260507062503 11 0 0.0 0.0 0.00 0.56 0.00 90 1005.9
20260507062003 11 0 0.0 0.0 0.00 0.56 0.00 90 1005.9
20260507061503 11 0 0.0 0.0 0.00 0.56 0.00 90 1006.0
20260507061003 11 0 0.0 0.0 0.00 0.56 0.00 90 1006.0
20260507060503 11 0 0.0 0.0 0.00 0.56 0.00 90 1006.1
20260507060004 11 0 0.0 0.0 0.00 0.56 0.00 90 1006.1
20260507055504 11 0 0.0 0.0 0.00 0.56 0.00 90 1006.1
20260507055003 11 0 0.0 0.0 0.00 0.56 0.00 90 1006.3
20260507054504 11 0 0.0 0.0 0.00 0.56 0.00 90 1006.4
20260507054003 11 0 0.0 0.0 0.00 0.56 0.00 90 1006.6
20260507053504 11 0 0.0 0.0 0.00 0.56 0.00 90 1006.7
20260507053004 11 0 0.0 0.0 0.00 0.56 0.00 90 1006.6
20260507051503 11 0 0.0 0.0 0.00 0.56 0.00 91 1006.4
20260507051003 11 0 0.0 0.0 0.00 0.56 0.00 91 1006.8
20260507050503 11 0 0.0 0.0 0.00 0.56 0.00 91 1006.7
20260507050003 12 0 0.0 0.0 0.00 0.56 0.00 91 1006.4
20260507045504 12 314 0.0 1.6 0.00 0.56 0.00 91 1006.3
20260507045003 12 314 0.0 4.8 0.05 0.56 0.00 91 1006.3
20260507044503 12 318 0.0 6.4 0.05 0.56 0.00 91 1006.3
20260507043503 12 0 0.0 0.0 0.05 0.56 0.00 91 1006.3
20260507043003 12 0 0.0 0.0 0.05 0.56 0.00 91 1006.3
20260507042003 12 323 0.0 3.2 0.05 0.56 0.00 91 1006.3
20260507041503 12 324 0.0 3.2 0.05 0.56 0.00 91 1006.3
20260507041003 13 318 0.0 4.8 0.05 0.56 0.00 91 1006.4
20260507040503 13 318 1.6 11.3 0.05 0.56 0.00 91 1006.4
20260507040005 13 317 1.6 11.3 0.05 0.56 0.00 91 1006.3
20260507035003 13 0 0.0 0.0 0.03 0.51 0.51 92 1006.3
20260507034503 13 0 0.0 0.0 0.03 0.51 0.51 92 1006.0
20260507034003 13 0 0.0 0.0 0.03 0.51 0.51 92 1005.8
20260507033503 13 313 0.0 4.8 0.03 0.51 0.51 92 1005.8
20260507032504 14 311 0.0 3.2 0.03 0.51 0.51 93 1005.8
20260507032003 14 317 1.6 9.7 0.03 0.51 0.51 93 1005.7
20260507031504 14 309 1.6 9.7 0.03 0.51 0.51 94 1005.5
20260507031003 15 303 3.2 9.7 0.03 0.51 0.51 94 1005.3
20260507030503 15 305 1.6 9.7 0.03 0.51 0.51 95 1005.6
20260507030004 15 0 0.0 0.0 0.00 0.48 0.48 95 1005.4
20260507025503 15 0 0.0 0.0 0.00 0.48 0.48 95 1005.3
20260507025004 15 0 0.0 0.0 0.00 0.48 0.48 95 1005.4
20260507024504 15 220 0.0 3.2 0.00 0.48 0.48 95 1005.2
20260507024003 15 220 0.0 3.2 0.00 0.48 0.48 95 1005.2
20260507023504 15 203 0.0 6.4 0.00 0.48 0.48 95 1005.2
20260507023003 15 201 0.0 6.4 0.00 0.48 0.48 94 1005.3
20260507021503 15 0 0.0 0.0 0.00 0.48 0.48 94 1004.9
20260507021003 15 0 0.0 0.0 0.00 0.48 0.48 94 1004.7
20260507020503 15 249 0.0 9.7 0.00 0.48 0.48 94 1004.7
20260507020004 15 244 0.0 9.7 0.00 0.48 0.48 94 1004.9
20260507015014 15 228 0.0 8.0 0.00 0.48 0.48 94 1004.8
20260507014503 15 202 0.0 4.8 0.00 0.48 0.48 94 1004.9
20260507014004 15 182 1.6 9.7 0.00 0.48 0.48 94 1005.1
20260507013507 15 196 1.6 9.7 0.00 0.48 0.48 94 1005.1
20260507013004 15 209 1.6 11.3 0.00 0.48 0.48 94 1004.9
20260507012003 15 182 3.2 9.7 0.00 0.48 0.48 94 1005.1
20260507011504 15 174 1.6 9.7 0.00 0.48 0.48 94 1005.1
20260507010503 15 182 1.6 12.9 0.00 0.48 0.48 94 1005.1
20260507010003 15 215 0.0 1.6 0.00 0.48 0.48 94 1005.2
20260507005503 15 159 0.0 9.7 0.00 0.48 0.48 94 1005.2
20260507005008 15 163 0.0 9.7 0.00 0.48 0.48 94 1005.2
20260507004512 15 166 1.6 8.0 0.00 0.48 0.48 94 1005.2
20260507003503 15 175 0.0 9.7 0.00 0.48 0.48 94 1005.0
20260507003003 15 152 0.0 6.4 0.00 0.48 0.48 94 1004.8
20260507002504 15 176 1.6 8.0 0.00 0.48 0.48 94 1004.8
20260507002003 15 194 1.6 9.7 0.00 0.48 0.48 94 1004.8
20260507001504 15 191 1.6 11.3 0.00 0.48 0.48 94 1004.8
20260507001003 15 174 1.6 11.3 0.03 0.48 0.48 94 1004.9
20260507000003 15 159 0.0 9.7 0.08 0.48 0.48 94 1004.7
20260506235503 15 156 0.0 9.7 0.10 0.48 0.48 94 1004.7
20260506234004 15 159 0.0 9.7 0.15 0.48 0.48 94 1004.7
20260506233004 15 193 0.0 9.7 0.18 0.48 0.48 93 1004.7
20260506232503 15 193 0.0 9.7 0.18 0.48 0.48 93 1004.7
20260506232003 15 0 0.0 0.0 0.20 0.48 0.48 93 1004.7
20260506231003 15 161 1.6 14.5 0.20 0.46 0.46 93 1004.7
20260506230004 15 170 1.6 11.3 0.15 0.41 0.41 93 1004.8
20260506225004 15 172 0.0 3.2 0.18 0.38 0.38 92 1005.1
20260506224503 15 192 1.6 6.4 0.15 0.36 0.36 92 1005.1
20260506224003 15 179 1.6 11.3 0.13 0.33 0.33 92 1005.0
20260506223503 15 171 1.6 11.3 0.10 0.30 0.30 92 1005.0
20260506223004 15 181 1.6 14.5 0.10 0.30 0.30 92 1004.9
20260506222503 15 178 1.6 14.5 0.10 0.30 0.30 92 1005.1
20260506222003 15 166 1.6 9.7 0.08 0.28 0.28 92 1005.1
20260506221504 15 161 1.6 14.5 0.05 0.25 0.25 92 1005.2
20260506221003 15 159 3.2 14.5 0.05 0.25 0.25 91 1005.2
20260506220503 15 160 3.2 14.5 0.08 0.25 0.25 91 1005.2
20260506220003 15 166 1.6 20.9 0.08 0.25 0.25 91 1005.2
20260506215003 15 145 1.6 14.5 0.03 0.20 0.20 91 1005.3
20260506214004 15 168 3.2 19.3 0.05 0.20 0.20 90 1005.2
20260506213503 15 165 3.2 19.3 0.05 0.20 0.20 90 1005.2
20260506213004 16 169 1.6 14.5 0.05 0.20 0.20 90 1005.2
20260506211503 16 163 1.6 22.5 0.08 0.20 0.20 89 1005.5
20260506211003 16 179 0.0 22.5 0.10 0.20 0.20 89 1005.6
20260506210504 16 171 3.2 24.1 0.08 0.18 0.18 89 1005.6
20260506210003 16 166 3.2 24.1 0.08 0.18 0.18 89 1005.7
20260506205503 16 163 1.6 19.3 0.08 0.18 0.18 89 1005.8
20260506205004 16 166 3.2 19.3 0.08 0.18 0.18 88 1005.8
20260506204504 16 174 3.2 17.7 0.05 0.15 0.15 88 1005.8
20260506204003 16 184 1.6 14.5 0.05 0.15 0.15 87 1005.8
20260506203503 16 199 1.6 11.3 0.05 0.15 0.15 87 1005.8
20260506203004 17 178 1.6 14.5 0.05 0.15 0.15 87 1005.8
20260506202503 17 172 1.6 14.5 0.03 0.13 0.13 87 1005.8
20260506201504 17 172 1.6 11.3 0.05 0.13 0.13 85 1005.8
20260506200504 17 154 0.0 4.8 0.05 0.10 0.10 84 1005.8
20260506200004 17 162 1.6 9.7 0.05 0.10 0.10 84 1005.8
20260506195003 17 185 1.6 17.7 0.08 0.10 0.10 83 1005.8
20260506194002 18 169 0.0 3.2 0.10 0.10 0.10 82 1005.8
20260506193503 18 194 1.6 14.5 0.10 0.10 0.10 81 1005.8
20260506193002 18 192 1.6 14.5 0.10 0.10 0.10 80 1005.8
20260506192502 18 175 0.0 4.8 0.08 0.08 0.08 80 1005.8
20260506192003 18 133 0.0 3.2 0.08 0.08 0.08 79 1005.9
20260506191502 18 165 0.0 14.5 0.08 0.08 0.08 77 1005.7
20260506191002 19 168 0.0 14.5 0.05 0.05 0.05 76 1005.8
20260506190502 19 182 0.0 3.2 0.05 0.05 0.05 75 1005.8
20260506190002 20 193 0.0 3.2 0.05 0.05 0.05 74 1005.9
20260506185502 20 0 0.0 0.0 0.05 0.05 0.05 73 1005.9
20260506185002 20 158 0.0 4.8 0.03 0.03 0.03 71 1006.1
20260506184502 20 173 0.0 9.7 0.03 0.03 0.03 68 1006.1
20260506184002 20 211 0.0 9.7 0.00 0.00 0.00 68 1006.1
20260506183503 21 199 1.6 9.7 0.00 0.00 0.00 66 1006.0
20260506182502 21 236 1.6 24.1 0.00 0.00 0.00 63 1006.2
20260506181502 21 203 3.2 24.1 0.00 0.00 0.00 59 1006.3
20260506181002 21 211 3.2 24.1 0.00 0.00 0.00 58 1006.2
20260506180502 22 207 3.2 20.9 0.00 0.00 0.00 56 1006.2
20260506180002 22 216 3.2 20.9 0.00 0.00 0.00 55 1006.2
20260506175502 22 195 4.8 37.0 0.00 0.00 0.00 53 1006.2
20260506174502 22 193 4.8 24.1 0.00 0.00 0.00 51 1006.3
20260506173502 22 187 4.8 25.7 0.00 0.00 0.00 50 1006.0
20260506173003 22 183 6.4 25.7 0.00 0.00 0.00 51 1006.0
20260506172502 22 183 6.4 22.5 0.00 0.00 0.00 51 1006.0
20260506172002 22 182 6.4 19.3 0.00 0.00 0.00 51 1006.1
20260506171502 22 175 4.8 20.9 0.00 0.00 0.00 51 1006.2
20260506171002 22 167 4.8 22.5 0.00 0.00 0.00 51 1006.3
20260506170502 22 184 4.8 32.2 0.00 0.00 0.00 52 1006.3